Погода в Войсковом

Украина / Днепропетровская область     48°10′16″N   35°09′57″E
темп.,
°C
ветер,
м/с
пор.,
м/с
влажн.,
%
обл.,
%
осадки,
мм/ч
давл.,
гПа
погр.,
м
20 апреля, вт
вт2000:00+10св236993 0.0 101249
03:00+10ссв3475100 0.0 101188
06:00+9св3784100 0.0 1009194
09:00+11всв3775100 0.1 1007546
12:00+10ссз3389100 4.4 1006223
15:00+10ссз6889100 9.2 1004611
18:00+9сз61192100 7.9 1004565
21:00+9зсз4989100 8.5 1006334
21 апреля, ср
ср2100:00+7з499127 0.0 1008194
03:00+6зюз498965 0.1 1010183
06:00+5зюз49903 0.0 1011195
09:00+10з46746 0.0 1013638
12:00+14зюз575185 0.2 10141904
15:00+13юз5660100 0.4 10141008
18:00+12зюз4768100 1.8 1015788
21:00+9юз35865 2.9 101783
22 апреля, чт
чт2200:00+8юз348943 0.0 101858
03:00+7ююз359144 0.0 101879
06:00+6ююз35935 0.0 101988
09:00+12юз45725 0.0 1020467
12:00+16юз55513 0.1 10201684
15:00+17юз444293 0.1 10202276
18:00+15юз2254100 0.1 102016
21:00+13юз2362100 0.1 102146
23 апреля, пт
пт2300:00+12ююз3766100 0.0 1021166
03:00+11ююз3775100 0.0 1022210
06:00+8ююз36870 0.0 1022139
09:00+13ююз57650 0.0 1022591
12:00+16ююз67492 0.0 10221687
15:00+18ююз564140 0.0 10202362
18:00+15ююз585487 0.0 1019363
21:00+12ю612645 0.0 1019340
24 апреля, сб
сб2400:00+10ю410782 0.0 1019270
03:00+8ю3684100 0.0 1018145
06:00+8ююз3679100 0.0 1017171
09:00+11зюз2369100 0.0 1017478
12:00+12сз6471100 0.0 1017786
15:00+10ссз667298 0.0 1018714
18:00+9с456940 0.0 1018641
21:00+7всв117793 0.0 101910